Temp
86 85 86 86 85 83 84 83 82 81 80 79 78 77 77 76 76 74 73 72 71 72 74 75 75 77 77 77 78 79 80 79 79 78 78 78 77 76 77 77 78 79 81 83 84 84 85 86 86 88 86 86 86 87 86 86 88 91 88 85 86 83 84
84 85 85 86 85 83 83 83 82 81 81 79 78 78 77 76 75 74 72 72 73 74 74 75 76 77 77 77 77 78 78 78 79 78 79 78 78 77 77 78 78 77 75 78 83 85 85 87 87 87 86 86 87 86 88 87 86 87 87 86 86 85 85
84 82 81 84 86 84 83 82 83 83 81 80 79 78 77 75 75 74 72 72 73 74 75 76 77 77 78 77 77 77 78 78 78 79 79 80 79 80 79 78 78 77 76 78 79 84 87 86 86 86 86 86 88 86 86 85 85 87 87 85 86 87 85
82 83 83 85 86 85 85 83 83 83 82 81 79 78 77 75 76 75 74 75 73 74 75 76 76 77 77 77 76 77 77 77 79 80 81 82 81 81 79 79 80 80 78 79 81 84 88 87 88 86 86 86 86 87 87 86 87 87 87 85 85 86 85
84 84 83 85 82 84 84 83 84 83 81 81 79 78 77 75 76 75 75 76 75 75 77 77 78 78 78 77 77 77 78 79 78 80 81 82 83 81 80 81 81 81 80 81 81 84 84 85 88 87 87 85 87 86 86 86 87 86 86 86 85 86 87
77 77 80 82 84 79 79 85 84 83 82 80 79 77 77 77 77 76 76 75 75 77 77 78 78 77 77 78 76 77 78 79 80 80 81 82 82 83 82 83 83 83 81 81 82 85 86 87 87 88 87 88 89 89 89 88 89 89 87 86 85 87 89
73 74 75 79 82 82 76 78 84 83 82 81 81 80 79 78 77 77 77 78 77 76 77 77 79 80 78 78 76 77 78 80 81 81 82 82 83 83 83 83 82 83 83 81 80 84 86 86 86 86 87 89 87 89 87 86 87 88 87 85 84 85 85
77 75 77 80 86 84 72 77 81 82 82 81 80 80 79 79 79 78 77 78 79 78 77 77 78 80 79 78 78 78 79 81 82 81 82 82 82 83 84 82 79 81 81 82 77 81 85 86 88 87 88 88 87 87 89 86 85 89 89 87 85 86 90
81 80 80 83 82 73 70 74 81 82 81 80 80 79 79 79 79 79 77 77 77 77 77 79 79 79 79 79 79 79 81 81 81 81 82 81 79 83 82 82 78 77 80 82 77 77 82 86 86 86 87 87 86 86 88 86 88 88 88 87 86 86 88
81 80 81 79 82 78 72 73 77 80 79 79 80 79 79 79 79 78 78 78 79 78 78 79 80 80 80 80 80 80 80 79 80 80 79 80 79 83 83 83 78 78 77 79 75 76 80 86 87 87 85 87 86 86 86 87 87 88 89 88 88 87 86
80 81 80 81 80 75 73 73 75 77 79 79 79 79 79 79 78 78 78 79 79 79 81 79 79 78 80 78 76 76 77 78 78 76 76 77 79 83 83 82 81 77 79 77 76 79 81 85 87 87 86 88 87 87 86 85 87 87 88 89 88 88 88
80 80 80 77 77 72 69 69 71 72 77 78 80 80 79 79 79 79 79 79 80 80 81 77 79 77 73 74 75 74 75 77 77 75 75 77 78 81 82 82 81 81 81 81 78 77 83 86 88 88 87 88 88 89 87 86 86 86 87 89 89 88 87
81 80 80 78 77 71 68 68 71 70 71 76 80 80 80 80 79 79 79 78 77 79 78 77 75 74 76 73 73 73 73 74 76 76 75 77 79 79 80 80 80 80 83 85 78 75 77 85 87 88 89 88 90 90 88 88 88 85 86 87 88 88 87
81 81 81 80 76 72 70 69 71 72 74 74 75 80 79 80 80 80 78 77 77 77 77 77 75 73 73 73 74 76 75 75 76 80 80 80 80 79 80 79 78 78 79 80 78 74 75 84 88 89 89 89 89 89 89 88 87 85 85 86 88 89 89
80 81 81 80 77 74 71 70 69 68 69 71 73 75 75 78 79 79 77 75 76 76 74 74 75 74 74 73 73 75 77 77 78 79 80 79 80 80 80 79 78 77 79 79 79 80 78 87 90 88 89 89 88 89 90 90 90 89 87 86 86 88 90
82 82 82 81 80 76 74 74 72 67 68 70 72 74 76 76 77 76 74 73 73 74 75 73 72 73 74 74 74 75 77 77 77 78 79 79 79 79 81 81 77 76 77 78 78 80 83 87 87 88 88 88 87 88 90 90 91 87 84 84 88 87 90
82 82 82 80 80 78 78 78 75 74 73 74 72 72 75 77 76 74 73 74 73 73 75 74 72 73 74 74 76 75 75 75 76 76 76 78 79 79 80 76 75 75 75 74 76 75 80 85 86 87 88 88 87 88 90 90 91 83 76 76 81 88 88
83 83 83 83 81 81 79 79 72 73 72 73 75 75 74 76 77 77 75 75 75 76 76 75 74 74 75 75 76 76 75 75 74 73 74 76 78 79 79 74 76 75 76 74 73 79 86 84 85 85 87 87 88 88 89 89 86 77 76 76 75 81 87
85 85 85 82 81 81 79 74 72 73 73 73 73 74 76 77 78 76 77 78 79 79 78 77 76 76 76 76 75 73 74 75 76 76 76 79 79 78 77 75 75 76 77 78 78 82 82 83 85 85 86 87 85 87 88 89 84 73 73 74 74 74 83
86 86 85 86 85 84 77 71 71 73 75 74 74 75 76 78 79 80 80 80 79 79 78 77 77 77 75 75 75 75 74 74 75 77 78 79 78 75 74 73 73 74 75 76 76 81 82 84 84 84 83 84 84 83 86 87 86 73 71 72 72 73 77
85 86 86 85 85 84 76 73 73 73 74 75 75 75 75 76 78 79 79 76 79 79 78 78 77 77 77 76 75 75 74 75 75 76 77 76 76 76 75 74 74 74 75 76 77 79 82 83 83 83 83 84 86 85 88 90 80 73 69 68 69 71 77
85 86 86 86 85 83 74 74 73 74 75 77 77 76 77 77 78 78 79 79 79 78 78 76 76 75 75 76 76 74 75 73 73 74 74 76 76 74 75 74 75 76 76 77 76 79 83 83 83 83 83 83 85 85 85 88 77 69 67 66 67 69 80
90 88 88 88 90 84 77 75 76 76 77 77 79 79 78 78 78 79 79 79 80 79 78 77 75 74 71 72 73 73 73 72 73 73 73 73 74 76 75 74 74 75 76 76 77 77 78 81 82 83 84 84 83 83 83 85 78 68 67 64 66 70 78
93 92 92 93 90 85 79 78 78 78 77 77 78 79 80 80 80 79 79 79 79 79 80 79 77 76 72 70 70 72 73 72 73 73 73 73 72 73 75 75 75 75 76 75 76 76 78 78 78 79 80 81 81 82 82 84 78 63 65 63 63 72 77
91 94 93 93 90 88 83 79 79 78 79 78 77 78 80 80 79 79 79 79 79 79 79 79 80 80 77 76 71 72 73 74 73 72 73 73 73 74 74 74 74 75 75 75 75 76 77 78 77 78 78 79 79 80 80 82 77 62 62 61 60 66 76
91 93 92 88 92 89 82 79 79 79 79 79 79 80 80 80 79 79 79 79 79 78 78 79 80 81 81 76 73 73 73 74 73 72 73 74 74 74 74 75 75 75 74 74 75 76 76 77 77 77 78 79 78 79 78 78 79 77 62 58 60 62 72
89 93 92 93 89 84 83 81 81 81 81 80 81 81 81 80 79 79 80 80 80 79 80 81 79 76 77 77 77 73 73 72 72 73 74 75 75 76 76 76 75 75 75 74 75 75 75 75 76 77 77 77 77 77 78 78 78 77 65 61 60 60 66
94 93 91 86 85 86 86 88 83 81 82 83 83 83 83 83 81 81 80 80 80 82 82 82 83 81 80 78 75 73 72 71 73 75 75 76 76 76 75 76 75 75 75 74 74 74 74 75 75 76 76 77 78 78 78 79 79 78 69 62 60 59 59
87 86 85 85 86 88 87 83 82 82 82 83 83 83 83 83 81 81 81 80 82 83 83 82 82 82 81 81 80 76 76 75 76 76 77 77 77 77 76 75 75 75 76 75 74 74 74 74 74 74 74 75 76 77 78 78 78 73 76 67 59 58 57
88 87 87 90 90 88 87 83 82 81 82 82 83 83 83 83 81 81 81 81 81 82 82 82 82 81 81 80 79 77 77 76 76 77 77 77 77 76 76 75 76 75 74 75 74 73 73 73 74 73 72 73 74 75 76 77 77 76 73 73 64 59 57
87 87 88 88 89 87 86 83 80 80 80 81 82 82 82 82 81 81 80 82 82 81 81 81 81 81 80 79 78 78 77 78 78 78 79 79 78 77 76 77 77 75 76 74 74 74 73 74 74 73 73 72 72 73 75 76 76 77 75 70 70 63 59
86 88 89 89 86 85 85 83 81 80 79 80 81 80 82 81 81 80 81 82 82 82 82 81 80 80 80 79 78 78 78 76 76 76 77 77 77 77 76 76 76 76 76 76 75 75 74 75 75 75 74 74 74 74 74 75 75 75 77 76 74 71 64
86 86 87 85 84 84 82 81 80 79 78 78 80 80 81 81 82 81 81 81 83 83 81 80 80 79 79 79 78 78 78 77 76 75 76 76 76 76 76 77 76 76 75 75 75 75 75 75 75 75 75 74 75 75 75 75 75 75 76 77 77 77 76
84 85 85 85 83 83 82 81 80 79 79 78 79 80 81 80 80 81 81 82 83 84 83 80 79 79 79 80 79 78 78 77 77 76 74 74 75 74 74 75 77 75 74 75 75 74 74 74 74 74 74 73 74 74 73 74 75 76 72 69 65 65 67
83 84 83 82 82 82 80 81 80 80 79 79 79 80 79 80 80 81 80 80 81 81 80 79 79 79 79 80 80 79 78 77 76 75 75 74 74 74 75 75 75 74 75 75 74 74 72 73 73 73 73 73 72 70 70 71 72 73 61 62 57 60 62
82 84 83 83 83 83 81 81 81 81 80 79 79 79 79 79 79 80 80 80 80 80 78 78 78 78 78 79 79 79 79 76 77 77 76 75 74 75 75 74 68 70 74 72 65 59 59 62 71 70 71 71 71 72 69 70 70 59 52 51 50 49 49
82 82 82 83 82 81 80 81 81 80 79 79 79 78 79 79 79 79 79 79 80 80 79 78 76 77 79 79 79 77 78 79 78 76 75 75 75 75 74 74 72 54 54 65 65 56 49 50 51 51 57 65 70 70 62 59 55 52 50 49 48 48 47
84 83 82 83 82 80 80 80 80 80 79 79 78 78 78 78 79 79 80 80 80 80 79 78 77 75 77 77 76 75 76 76 77 77 75 74 75 74 74 74 72 71 55 52 57 53 48 46 47 47 48 49 55 65 69 61 55 50 48 47 47 47 46
MSLP
1008.14 1008.50 1008.10 1008.22 1008.30 1008.78 1008.62 1008.54 1008.46 1008.54 1008.66 1008.94 1008.90 1009.06 1009.06 1009.14 1009.42 1009.66 1010.06 1010.38 1010.74 1010.82 1010.66 1010.42 1010.66 1010.82 1011.06 1011.34 1011.54 1011.66 1011.70 1011.98 1012.26 1012.62 1012.94 1013.14 1013.34 1013.54 1013.74 1013.74 1013.82 1013.98 1014.02 1014.10 1014.10 1014.18 1014.10 1014.02 1014.02 1014.14 1014.42 1014.54 1014.66 1014.58 1014.66 1014.70 1014.82 1014.90 1015.06 1015.22 1015.54 1015.82 1015.94
1008.38 1008.18 1008.26 1008.10 1008.18 1008.54 1008.58 1008.46 1008.54 1008.54 1008.50 1008.70 1008.82 1008.90 1008.98 1009.22 1009.50 1009.58 1009.86 1010.02 1010.02 1010.10 1010.18 1010.50 1010.54 1010.66 1010.86 1011.18 1011.42 1011.62 1011.82 1011.98 1012.14 1012.42 1012.70 1012.98 1013.18 1013.46 1013.50 1013.70 1013.86 1013.94 1013.94 1013.90 1013.74 1013.70 1013.86 1013.98 1013.98 1014.10 1014.34 1014.46 1014.54 1014.46 1014.54 1014.66 1014.86 1014.98 1015.06 1015.22 1015.54 1015.74 1015.82
1008.26 1008.82 1008.94 1008.30 1008.10 1008.46 1008.54 1008.62 1008.30 1008.22 1008.42 1008.66 1008.78 1008.86 1009.06 1009.30 1009.42 1009.58 1009.70 1009.98 1010.06 1009.98 1010.10 1010.10 1010.30 1010.50 1010.62 1010.98 1011.38 1011.58 1011.66 1011.86 1012.14 1012.42 1012.74 1012.90 1013.10 1013.26 1013.46 1013.50 1013.70 1013.86 1013.78 1013.54 1013.58 1013.62 1013.50 1013.90 1013.94 1013.90 1014.18 1014.42 1014.42 1014.50 1014.58 1014.74 1014.86 1014.94 1014.98 1015.14 1015.42 1015.62 1015.78
1008.38 1008.38 1008.46 1008.14 1007.66 1007.98 1008.14 1008.42 1008.38 1008.34 1008.26 1008.42 1008.82 1008.90 1009.02 1009.30 1009.26 1009.34 1009.46 1009.74 1010.10 1010.14 1010.18 1010.22 1010.38 1010.42 1010.54 1010.90 1011.22 1011.38 1011.54 1011.74 1011.94 1012.18 1012.34 1012.50 1012.82 1013.06 1013.38 1013.38 1013.42 1013.50 1013.70 1013.58 1013.38 1013.46 1013.42 1013.58 1013.82 1013.86 1014.02 1014.26 1014.34 1014.34 1014.54 1014.74 1014.82 1014.86 1014.90 1015.06 1015.34 1015.34 1015.46
1007.90 1007.98 1008.30 1007.82 1008.58 1008.26 1008.14 1008.34 1008.10 1008.18 1008.38 1008.38 1008.62 1008.82 1009.02 1009.34 1009.26 1009.38 1009.54 1009.70 1009.82 1009.94 1009.90 1010.06 1010.18 1010.26 1010.38 1010.66 1010.98 1011.18 1011.30 1011.54 1011.86 1011.90 1012.06 1012.10 1012.26 1012.66 1013.06 1013.18 1013.18 1013.34 1013.38 1013.38 1013.34 1013.34 1013.54 1013.66 1013.70 1013.74 1013.94 1014.02 1014.22 1014.26 1014.50 1014.58 1014.66 1014.70 1014.82 1014.86 1015.26 1015.22 1015.38
1008.82 1008.90 1008.54 1008.18 1007.90 1009.02 1008.98 1007.70 1007.74 1007.94 1008.18 1008.42 1008.66 1008.90 1009.02 1009.10 1009.18 1009.50 1009.58 1009.86 1010.02 1009.94 1009.94 1009.98 1010.14 1010.22 1010.50 1010.58 1011.02 1011.18 1011.22 1011.38 1011.54 1011.70 1011.86 1011.90 1012.10 1012.34 1012.66 1012.70 1012.86 1013.06 1013.34 1013.46 1013.34 1013.30 1013.30 1013.46 1013.50 1013.54 1013.82 1013.86 1013.94 1014.02 1014.18 1014.42 1014.42 1014.42 1014.66 1014.78 1015.02 1015.14 1015.26
1008.74 1009.10 1009.06 1008.86 1008.22 1007.86 1008.82 1008.70 1007.58 1007.70 1007.82 1008.06 1008.14 1008.34 1008.62 1008.90 1009.18 1009.34 1009.46 1009.66 1009.86 1010.22 1010.22 1010.22 1010.06 1010.10 1010.34 1010.50 1010.94 1011.06 1011.22 1011.34 1011.42 1011.58 1011.54 1011.74 1011.78 1011.98 1012.22 1012.38 1012.58 1012.74 1012.90 1013.06 1013.34 1013.22 1013.26 1013.34 1013.34 1013.42 1013.54 1013.58 1013.74 1013.78 1013.98 1014.14 1014.26 1014.18 1014.34 1014.74 1015.02 1015.06 1015.06
1008.82 1009.06 1008.58 1008.18 1007.30 1007.66 1010.10 1008.94 1007.98 1007.62 1007.78 1007.90 1008.22 1008.46 1008.78 1008.74 1008.90 1009.30 1009.54 1009.58 1009.66 1009.94 1010.06 1010.06 1009.94 1009.98 1010.22 1010.42 1010.70 1011.02 1011.06 1011.02 1011.10 1011.22 1011.38 1011.66 1011.62 1011.74 1011.94 1012.22 1012.50 1012.58 1012.82 1013.10 1013.18 1013.26 1013.14 1013.14 1013.18 1013.26 1013.26 1013.42 1013.66 1013.70 1013.66 1013.90 1014.06 1013.98 1014.14 1014.54 1014.90 1015.10 1014.86
1008.06 1008.06 1008.26 1007.70 1007.66 1008.78 1009.26 1009.62 1007.90 1007.50 1007.78 1008.14 1008.30 1008.46 1008.62 1008.78 1008.90 1009.10 1009.42 1009.58 1009.78 1009.94 1009.98 1009.82 1009.90 1009.90 1010.02 1010.26 1010.46 1010.70 1010.74 1010.86 1011.02 1011.10 1011.18 1011.54 1011.74 1011.70 1011.90 1012.06 1012.42 1012.62 1012.94 1012.94 1013.18 1013.22 1013.22 1013.10 1013.14 1013.14 1013.14 1013.30 1013.46 1013.58 1013.58 1013.74 1013.90 1013.90 1013.98 1014.26 1014.58 1014.94 1014.82
1007.70 1007.98 1007.62 1007.58 1007.30 1008.26 1009.66 1009.66 1008.70 1007.90 1008.06 1008.14 1008.30 1008.58 1008.66 1008.82 1008.86 1009.06 1009.22 1009.42 1009.58 1009.90 1009.86 1009.86 1009.78 1009.78 1009.98 1010.18 1010.38 1010.46 1010.70 1010.86 1010.82 1010.98 1011.22 1011.54 1011.50 1011.54 1011.50 1011.70 1012.34 1012.58 1012.82 1012.98 1013.10 1013.22 1013.30 1012.90 1012.94 1012.82 1013.02 1013.26 1013.38 1013.46 1013.54 1013.54 1013.66 1013.78 1013.78 1013.98 1014.18 1014.50 1014.74
1007.90 1007.66 1007.66 1007.50 1007.82 1008.66 1010.14 1010.30 1009.42 1008.94 1008.34 1008.22 1008.26 1008.34 1008.58 1008.74 1009.02 1009.10 1009.18 1009.26 1009.50 1009.58 1009.46 1009.70 1009.98 1010.30 1010.14 1010.54 1011.06 1011.06 1011.10 1011.02 1010.94 1011.22 1011.38 1011.46 1011.38 1011.26 1011.38 1011.66 1011.98 1012.42 1012.74 1013.30 1013.54 1013.46 1013.34 1012.82 1012.50 1012.62 1012.90 1013.14 1013.30 1013.42 1013.42 1013.58 1013.58 1013.74 1013.74 1013.78 1013.90 1014.10 1014.30
1007.82 1007.74 1007.78 1008.02 1008.42 1009.38 1010.26 1010.54 1010.58 1010.10 1009.14 1008.66 1008.38 1008.38 1008.54 1008.74 1008.94 1009.10 1009.22 1009.38 1009.34 1009.46 1009.30 1009.98 1009.98 1010.10 1010.50 1010.78 1011.02 1011.18 1011.26 1011.02 1010.98 1011.10 1011.30 1011.42 1011.50 1011.26 1011.34 1011.54 1011.86 1012.14 1012.30 1012.70 1013.22 1013.34 1012.86 1012.58 1012.46 1012.50 1012.74 1012.82 1012.94 1012.94 1013.14 1013.30 1013.42 1013.50 1013.58 1013.62 1013.62 1013.90 1014.10
1007.70 1007.74 1007.86 1008.18 1008.50 1009.50 1009.62 1009.30 1009.86 1010.34 1010.50 1009.54 1008.62 1008.62 1008.42 1008.62 1008.86 1009.06 1009.22 1009.46 1009.62 1009.30 1009.42 1009.54 1009.74 1009.82 1009.98 1010.34 1010.42 1010.66 1011.18 1011.38 1011.14 1011.06 1011.38 1011.26 1011.10 1011.14 1011.30 1011.46 1011.62 1011.82 1011.86 1011.74 1012.34 1012.78 1013.34 1012.62 1012.34 1012.22 1012.34 1012.54 1012.50 1012.62 1012.74 1012.94 1013.02 1013.22 1013.38 1013.46 1013.54 1013.78 1014.02
1007.54 1007.58 1007.70 1007.90 1008.62 1009.10 1009.38 1009.22 1009.54 1009.82 1010.02 1010.10 1009.74 1008.90 1008.98 1008.70 1008.70 1008.78 1009.06 1009.22 1009.22 1009.22 1009.18 1009.06 1009.06 1009.10 1009.70 1010.22 1010.50 1010.58 1010.90 1011.10 1011.06 1010.58 1010.54 1010.58 1010.74 1010.98 1011.14 1011.30 1011.50 1011.62 1011.74 1011.94 1012.34 1013.14 1013.74 1012.70 1012.18 1012.02 1012.02 1012.22 1012.34 1012.38 1012.38 1012.58 1012.78 1013.02 1013.18 1013.30 1013.38 1013.46 1013.62
1007.78 1007.78 1007.50 1007.78 1008.26 1008.58 1008.86 1009.30 1009.62 1009.86 1009.94 1009.94 1010.26 1009.90 1009.86 1009.06 1008.82 1008.94 1009.10 1008.90 1008.98 1008.98 1008.98 1008.94 1008.98 1009.26 1009.82 1010.18 1010.42 1010.50 1010.38 1010.42 1010.46 1010.42 1010.42 1010.58 1010.66 1010.78 1011.10 1011.34 1011.50 1011.70 1011.78 1012.02 1012.30 1012.62 1012.94 1011.74 1011.58 1011.90 1011.98 1011.94 1012.10 1012.22 1012.26 1012.46 1012.62 1012.70 1012.98 1013.26 1013.30 1013.18 1013.22
1007.58 1007.46 1007.42 1007.62 1007.78 1008.38 1008.74 1008.98 1009.62 1010.06 1010.62 1011.06 1010.38 1009.22 1008.86 1008.90 1009.14 1009.62 1009.66 1009.22 1009.42 1009.02 1008.98 1009.34 1009.42 1009.58 1009.86 1010.10 1010.14 1010.10 1009.98 1010.06 1010.18 1010.34 1010.30 1010.42 1010.54 1010.62 1010.70 1010.98 1011.42 1011.50 1011.74 1012.02 1012.26 1012.14 1012.02 1011.30 1011.46 1011.66 1011.78 1011.94 1012.14 1012.26 1012.26 1012.26 1012.22 1012.34 1012.58 1012.78 1012.94 1013.06 1013.06
1007.22 1007.26 1007.10 1007.58 1007.54 1007.98 1008.14 1008.42 1009.50 1009.86 1009.70 1009.38 1009.26 1009.14 1009.18 1009.18 1009.50 1009.86 1009.46 1008.86 1009.10 1009.06 1009.10 1009.26 1009.62 1009.66 1009.74 1009.98 1009.62 1009.62 1009.78 1009.98 1010.22 1010.30 1010.50 1010.34 1010.34 1010.42 1010.54 1011.42 1011.54 1011.30 1011.70 1012.62 1012.90 1012.66 1012.06 1011.30 1011.58 1011.70 1011.78 1011.98 1012.18 1012.26 1012.22 1012.14 1012.02 1012.14 1012.42 1012.58 1012.62 1012.82 1013.06
1006.82 1006.66 1006.66 1006.78 1007.26 1007.50 1008.02 1008.38 1010.14 1009.74 1009.10 1009.14 1008.94 1008.94 1009.22 1009.10 1008.86 1008.78 1009.02 1008.66 1008.70 1008.78 1008.90 1009.22 1009.50 1009.66 1009.70 1009.74 1009.62 1009.74 1009.94 1010.06 1010.14 1010.38 1010.62 1010.62 1010.50 1010.46 1010.62 1011.66 1011.74 1011.78 1012.06 1012.78 1013.38 1012.26 1011.06 1011.38 1011.58 1011.66 1011.74 1011.78 1011.94 1012.10 1012.02 1011.90 1011.74 1011.98 1012.22 1012.42 1012.58 1012.66 1012.82
1006.18 1006.10 1006.22 1006.54 1007.18 1007.42 1007.98 1009.18 1009.22 1008.74 1008.94 1009.06 1009.18 1009.10 1008.82 1008.58 1008.58 1008.78 1008.66 1008.50 1008.22 1008.34 1008.74 1009.10 1009.34 1009.54 1009.70 1009.70 1010.06 1010.50 1010.66 1010.42 1010.22 1010.30 1010.38 1010.26 1010.38 1010.66 1010.86 1011.90 1012.26 1012.02 1012.18 1012.18 1012.06 1011.70 1011.42 1011.50 1011.58 1011.62 1011.58 1011.66 1011.86 1011.90 1011.74 1011.74 1011.66 1011.82 1011.90 1012.10 1012.22 1012.46 1012.62
1005.90 1005.62 1005.74 1005.94 1006.34 1006.94 1008.30 1008.74 1007.86 1008.06 1008.46 1008.78 1008.98 1008.82 1008.78 1008.54 1008.42 1008.22 1008.18 1008.18 1008.26 1008.58 1008.82 1008.98 1009.18 1009.46 1009.82 1009.90 1010.06 1010.34 1010.86 1010.82 1010.82 1010.62 1010.34 1010.10 1010.14 1011.06 1011.30 1011.54 1012.18 1012.18 1012.02 1011.54 1011.14 1011.18 1011.30 1011.46 1011.58 1011.54 1011.62 1011.58 1011.70 1011.78 1011.70 1011.58 1011.42 1011.62 1011.78 1011.86 1011.98 1012.18 1012.38
1005.78 1005.70 1005.82 1005.98 1006.30 1006.70 1008.26 1008.62 1007.90 1007.90 1008.42 1008.62 1008.66 1008.82 1008.82 1008.70 1008.46 1008.30 1008.42 1008.74 1008.50 1008.54 1008.82 1008.94 1009.26 1009.54 1009.78 1010.02 1010.22 1010.30 1010.54 1010.54 1010.74 1010.74 1010.42 1010.34 1010.42 1010.58 1011.06 1011.46 1011.42 1011.50 1011.66 1011.58 1011.38 1011.42 1011.34 1011.34 1011.50 1011.42 1011.42 1011.46 1011.50 1011.78 1011.70 1011.38 1011.34 1011.54 1011.70 1011.90 1011.98 1012.10 1012.26
1005.38 1005.42 1005.86 1005.82 1006.14 1006.58 1008.18 1007.78 1007.58 1008.02 1008.26 1007.98 1008.26 1008.70 1008.66 1008.70 1008.42 1008.50 1008.46 1008.46 1008.54 1008.70 1008.82 1009.18 1009.38 1009.70 1009.82 1009.98 1010.10 1010.42 1010.38 1010.50 1010.70 1010.70 1010.70 1010.62 1010.54 1010.86 1011.18 1011.50 1011.62 1011.46 1011.26 1011.38 1011.54 1011.46 1011.02 1010.94 1010.94 1011.14 1011.22 1011.14 1011.26 1011.46 1011.62 1011.26 1011.30 1011.54 1011.78 1012.02 1012.22 1012.38 1012.46
1004.70 1005.30 1005.34 1005.42 1005.54 1006.38 1007.38 1007.18 1007.34 1007.62 1007.94 1008.06 1008.10 1008.26 1008.42 1008.26 1008.30 1008.38 1008.46 1008.50 1008.46 1008.58 1008.74 1009.06 1009.54 1009.98 1010.30 1010.42 1010.30 1010.38 1010.50 1010.46 1010.46 1010.50 1010.62 1010.82 1010.82 1010.74 1010.98 1011.34 1011.58 1011.46 1011.10 1011.18 1011.26 1011.38 1011.34 1011.22 1011.06 1010.86 1010.98 1011.06 1011.10 1011.30 1011.30 1011.18 1011.06 1011.30 1011.62 1011.82 1011.70 1012.14 1012.78
1004.02 1004.30 1004.62 1004.78 1005.34 1006.22 1007.14 1007.22 1007.18 1007.46 1007.94 1008.18 1008.22 1008.02 1007.94 1008.02 1008.14 1008.26 1008.50 1008.54 1008.42 1008.46 1008.54 1008.70 1009.30 1009.54 1010.54 1011.18 1011.18 1010.42 1010.06 1010.10 1010.14 1010.26 1010.46 1010.62 1010.78 1010.70 1010.58 1010.78 1010.98 1011.14 1011.14 1011.42 1011.38 1011.34 1011.22 1011.10 1011.14 1011.06 1011.02 1011.10 1011.18 1011.14 1011.34 1011.14 1011.06 1011.18 1011.10 1011.26 1011.62 1011.78 1012.50
1004.42 1004.02 1004.18 1004.46 1005.22 1006.10 1006.66 1007.06 1007.26 1007.54 1007.74 1007.98 1008.30 1008.10 1007.78 1007.90 1008.06 1008.26 1008.46 1008.50 1008.50 1008.50 1008.58 1008.66 1008.58 1008.66 1009.34 1009.98 1011.02 1010.74 1010.10 1009.74 1009.78 1010.06 1010.18 1010.38 1010.42 1010.30 1010.34 1010.50 1010.78 1010.82 1010.90 1011.02 1011.14 1011.22 1011.02 1010.98 1011.06 1011.02 1010.98 1010.98 1010.94 1010.94 1011.06 1011.06 1011.02 1011.22 1011.38 1011.50 1011.98 1012.58 1012.46
1004.10 1004.10 1004.34 1005.14 1004.82 1005.62 1006.46 1006.86 1007.38 1007.66 1007.86 1007.94 1007.90 1007.66 1007.78 1007.82 1008.02 1008.22 1008.26 1008.34 1008.30 1008.54 1008.62 1008.50 1008.34 1008.26 1008.54 1009.62 1010.46 1010.22 1009.90 1009.42 1009.62 1009.98 1010.06 1010.18 1010.18 1010.10 1010.14 1010.26 1010.50 1010.66 1010.82 1010.86 1010.90 1011.02 1010.98 1010.90 1010.98 1011.10 1010.94 1010.78 1010.90 1010.90 1010.86 1010.98 1010.86 1010.86 1011.22 1011.42 1011.50 1011.62 1012.02
1004.58 1003.78 1004.18 1004.38 1005.06 1005.78 1006.54 1006.90 1007.06 1007.38 1007.54 1007.54 1007.42 1007.42 1007.46 1007.62 1007.90 1008.14 1008.10 1008.10 1008.26 1008.42 1008.22 1007.94 1008.26 1008.78 1008.90 1008.98 1009.42 1010.14 1009.94 1009.26 1009.30 1009.58 1009.66 1009.70 1009.78 1009.74 1009.90 1009.98 1010.22 1010.34 1010.54 1010.74 1010.82 1010.90 1010.98 1011.10 1011.06 1011.06 1011.06 1010.94 1010.86 1010.86 1010.82 1010.82 1010.98 1010.86 1010.94 1011.10 1011.18 1011.38 1011.66
1003.54 1003.74 1004.06 1004.78 1005.22 1005.54 1005.90 1006.06 1006.70 1007.10 1007.18 1007.02 1006.94 1006.90 1007.02 1007.18 1007.66 1007.82 1007.94 1008.06 1008.22 1007.94 1007.62 1007.70 1007.78 1007.98 1008.38 1008.82 1009.42 1009.82 1010.10 1009.62 1009.46 1009.46 1009.50 1009.38 1009.46 1009.70 1009.86 1009.86 1010.02 1010.26 1010.42 1010.54 1010.74 1010.94 1011.06 1011.02 1011.10 1011.18 1011.18 1010.98 1010.86 1010.82 1010.78 1010.54 1010.62 1010.74 1010.78 1010.90 1011.02 1011.18 1011.46
1004.34 1004.94 1005.18 1005.34 1005.54 1005.30 1005.74 1006.54 1006.90 1007.06 1007.14 1006.94 1006.86 1006.86 1006.94 1007.14 1007.62 1007.78 1007.86 1008.14 1007.90 1007.50 1007.54 1007.66 1007.82 1008.02 1008.22 1008.42 1008.78 1009.30 1009.50 1009.46 1009.38 1009.42 1009.38 1009.50 1009.50 1009.70 1009.90 1009.98 1010.10 1010.18 1010.26 1010.50 1010.70 1010.86 1011.02 1011.02 1011.02 1011.18 1011.22 1011.10 1010.94 1010.78 1010.62 1010.42 1010.38 1010.50 1010.62 1010.66 1010.82 1010.90 1011.14
1004.14 1004.58 1004.94 1004.66 1004.90 1005.30 1005.78 1006.54 1006.82 1007.10 1007.02 1006.94 1006.90 1006.90 1006.98 1007.14 1007.58 1007.66 1007.90 1007.98 1007.54 1007.58 1007.62 1007.78 1007.90 1008.06 1008.30 1008.46 1008.78 1009.14 1009.38 1009.42 1009.50 1009.38 1009.38 1009.46 1009.54 1009.78 1009.94 1010.02 1010.06 1010.18 1010.38 1010.38 1010.58 1010.82 1010.98 1010.94 1010.94 1011.06 1011.22 1011.26 1011.10 1010.78 1010.58 1010.30 1010.14 1010.10 1010.14 1010.26 1010.38 1010.50 1010.62
1004.38 1004.70 1004.74 1004.86 1005.06 1005.30 1005.86 1006.58 1007.14 1007.22 1007.30 1007.14 1007.06 1007.02 1007.06 1007.10 1007.50 1007.66 1007.94 1007.58 1007.46 1007.74 1007.86 1007.94 1008.02 1008.18 1008.42 1008.62 1008.82 1008.98 1009.18 1009.22 1009.22 1009.30 1009.22 1009.30 1009.42 1009.74 1009.82 1009.90 1009.94 1010.22 1010.18 1010.38 1010.54 1010.62 1010.78 1010.78 1010.74 1010.94 1010.98 1011.02 1010.98 1010.74 1010.42 1010.22 1010.06 1009.94 1009.82 1009.90 1009.94 1010.02 1010.10
1004.50 1004.38 1004.46 1004.70 1005.18 1005.54 1005.90 1006.50 1006.94 1007.22 1007.50 1007.38 1007.18 1007.22 1007.10 1007.18 1007.38 1007.86 1007.70 1007.38 1007.50 1007.54 1007.70 1007.90 1008.14 1008.34 1008.42 1008.58 1008.82 1008.98 1009.06 1009.42 1009.42 1009.46 1009.46 1009.54 1009.50 1009.58 1009.66 1009.82 1009.90 1010.06 1010.06 1010.10 1010.22 1010.34 1010.46 1010.50 1010.46 1010.50 1010.54 1010.58 1010.50 1010.42 1010.18 1009.94 1009.86 1009.78 1009.62 1009.58 1009.62 1009.66 1009.70
1004.78 1004.70 1004.82 1005.18 1005.34 1005.58 1006.18 1006.70 1007.14 1007.42 1007.58 1007.74 1007.38 1007.22 1007.18 1007.26 1007.22 1007.34 1007.42 1007.54 1007.34 1007.30 1007.54 1007.94 1008.14 1008.34 1008.38 1008.58 1008.78 1008.86 1008.98 1009.22 1009.46 1009.58 1009.58 1009.62 1009.62 1009.54 1009.58 1009.58 1009.70 1009.86 1010.02 1009.98 1010.10 1010.18 1010.26 1010.26 1010.26 1010.26 1010.22 1010.26 1010.10 1009.90 1009.78 1009.70 1009.66 1009.54 1009.42 1009.22 1009.22 1009.30 1009.34
1005.02 1005.02 1004.82 1005.02 1005.38 1005.66 1006.14 1006.58 1006.98 1007.30 1007.42 1007.66 1007.42 1007.26 1007.14 1007.22 1007.34 1007.30 1007.38 1007.38 1007.26 1007.10 1007.26 1007.78 1008.10 1008.22 1008.30 1008.38 1008.46 1008.74 1008.86 1009.10 1009.22 1009.38 1009.62 1009.66 1009.70 1009.86 1009.86 1009.74 1009.70 1009.90 1010.02 1010.02 1010.02 1010.18 1010.34 1010.30 1010.30 1010.34 1010.34 1010.34 1010.14 1010.06 1009.98 1009.90 1009.66 1009.50 1009.74 1009.98 1010.30 1010.30 1010.18
1005.02 1005.10 1005.22 1005.58 1005.62 1005.74 1006.26 1006.42 1006.74 1006.98 1007.22 1007.30 1007.14 1007.18 1007.30 1007.34 1007.30 1007.30 1007.42 1007.46 1007.42 1007.42 1007.74 1007.98 1008.02 1008.18 1008.26 1008.22 1008.30 1008.50 1008.62 1008.82 1009.14 1009.26 1009.34 1009.50 1009.62 1009.54 1009.50 1009.70 1009.82 1009.90 1009.82 1009.66 1009.66 1009.86 1010.22 1010.38 1010.34 1010.30 1010.30 1010.30 1010.42 1010.58 1010.54 1010.30 1010.14 1009.94 1010.18 1010.50 1010.78 1010.94 1010.74
1004.98 1005.26 1005.50 1005.46 1005.50 1005.66 1005.98 1006.14 1006.42 1006.70 1006.94 1007.06 1007.06 1007.18 1007.34 1007.34 1007.34 1007.34 1007.42 1007.46 1007.46 1007.58 1007.90 1008.02 1008.10 1008.18 1008.22 1008.10 1008.22 1008.34 1008.42 1008.74 1008.86 1008.98 1009.10 1009.30 1009.54 1009.58 1009.54 1009.18 1009.22 1009.34 1009.70 1009.98 1009.86 1009.82 1009.86 1010.02 1010.26 1010.26 1010.26 1010.38 1010.22 1010.10 1010.50 1010.42 1010.10 1009.94 1009.98 1009.94 1010.02 1010.30 1010.86
1004.94 1005.34 1005.62 1005.50 1005.66 1005.90 1006.18 1006.22 1006.30 1006.54 1006.86 1006.94 1006.98 1007.26 1007.30 1007.38 1007.34 1007.38 1007.42 1007.46 1007.42 1007.54 1007.78 1007.94 1008.18 1008.22 1008.06 1008.02 1008.10 1008.30 1008.34 1008.34 1008.62 1008.94 1009.14 1009.26 1009.34 1009.38 1009.54 1009.54 1009.42 1009.54 1009.70 1009.62 1009.86 1009.94 1009.98 1010.02 1010.10 1010.18 1010.26 1010.34 1010.34 1010.06 1010.02 1010.10 1010.10 1010.10 1010.10 1010.14 1010.14 1010.06 1010.02
1004.34 1004.86 1005.18 1005.30 1005.62 1005.98 1006.18 1006.34 1006.46 1006.62 1006.86 1006.86 1007.02 1007.22 1007.26 1007.42 1007.34 1007.38 1007.26 1007.30 1007.42 1007.42 1007.70 1007.86 1008.10 1008.38 1008.26 1008.26 1008.46 1008.46 1008.42 1008.50 1008.50 1008.58 1008.94 1009.14 1009.22 1009.30 1009.42 1009.50 1009.74 1009.82 1009.86 1009.90 1009.82 1010.06 1010.26 1010.38 1010.22 1010.18 1010.30 1010.46 1010.50 1010.46 1010.22 1010.06 1010.06 1010.06 1010.10 1010.14 1010.22 1010.10 1010.06
Wind_Speed
1 4 3 4 4 4 2 1 1 2 3 4 4 8 8 8 8 11 14 13 13 10 11 11 11 12 11 9 8 7 8 6 6 6 5 5 4 4 5 3 5 5 5 6 7 6 6 6 7 8 7 7 6 4 6 4 3 5 3 4 2 3 3
6 4 3 6 3 2 1 2 3 2 1 3 6 7 6 7 8 10 10 11 14 14 13 12 12 9 9 8 7 9 8 7 7 6 5 5 5 5 5 5 5 5 4 3 3 6 5 7 7 6 7 7 7 4 4 3 3 3 4 4 4 3 3
2 1 4 8 2 4 3 2 3 4 4 4 5 7 7 7 8 9 11 10 11 11 11 11 11 12 11 11 9 10 8 8 8 8 9 8 8 8 7 7 7 6 7 6 3 6 8 9 7 6 8 8 9 6 4 4 4 5 3 4 4 5 5
2 4 4 8 3 1 4 3 4 4 5 7 7 8 8 8 8 9 9 11 10 10 11 9 10 10 11 11 9 10 10 9 9 9 10 10 10 9 9 8 8 7 7 8 7 7 9 8 10 7 9 8 7 8 7 6 7 6 6 5 5 6 4
5 2 6 5 3 6 3 4 5 6 6 9 10 9 8 8 7 7 6 6 7 8 9 10 9 10 9 10 8 8 10 10 9 9 9 9 9 8 9 11 9 9 8 9 9 7 7 9 12 9 9 7 9 8 8 8 8 7 6 6 5 6 5
5 6 5 5 5 4 6 6 6 8 8 9 11 11 9 10 8 8 8 7 7 8 8 9 9 9 11 10 7 7 7 8 10 11 10 10 10 10 11 11 10 10 10 10 9 9 10 10 10 10 11 11 11 11 11 11 10 9 8 6 6 6 7
2 1 6 5 9 2 6 6 8 9 9 9 9 10 10 9 9 8 7 9 9 9 10 10 10 10 10 9 8 7 10 11 11 12 11 12 12 11 10 9 8 9 9 8 8 8 10 11 9 10 11 12 10 11 9 8 8 7 6 6 6 6 5
5 3 5 10 10 4 3 5 7 9 10 8 8 8 9 9 8 8 8 7 7 9 8 9 9 9 9 9 8 10 11 12 10 11 9 11 11 13 11 9 7 6 6 8 9 5 9 12 11 9 11 11 11 10 10 7 5 8 7 7 7 8 8
6 5 5 7 1 7 5 5 6 10 10 10 9 8 8 8 8 8 8 8 7 7 8 8 7 7 8 8 8 10 11 11 10 9 10 11 10 11 11 8 6 5 7 8 5 6 8 10 12 11 10 10 10 9 9 9 10 8 7 7 8 9 9
3 4 4 5 6 5 9 8 3 7 7 7 8 8 8 8 7 8 8 8 8 9 9 8 8 8 8 8 9 10 10 9 7 7 6 8 9 10 9 7 7 6 9 4 4 7 11 12 14 11 10 10 9 9 8 8 9 9 8 7 7 8 7
2 2 3 4 2 11 10 8 1 3 4 6 7 7 7 7 7 7 7 8 8 8 10 7 5 6 4 3 5 7 8 9 7 5 6 7 8 11 10 7 7 7 10 11 12 11 12 12 10 9 9 12 12 11 8 6 8 8 9 8 8 8 8
4 3 4 3 2 11 8 1 8 8 2 4 5 6 7 7 7 7 6 6 6 6 4 5 3 5 6 4 6 3 7 7 7 7 8 10 9 7 7 7 7 10 11 11 9 8 9 10 12 10 11 11 12 12 10 8 9 8 8 9 7 5 6
3 3 1 2 4 7 6 4 4 5 10 5 5 6 6 6 7 6 6 5 2 3 4 5 6 5 7 6 7 8 7 9 10 11 10 10 8 5 5 6 6 7 7 6 7 4 9 13 11 9 11 11 11 12 10 10 11 7 7 7 8 8 8
3 3 3 4 7 7 5 5 6 4 4 2 6 3 3 4 4 5 6 5 6 5 5 6 8 8 6 5 7 8 10 7 5 7 6 6 6 7 6 6 7 6 4 2 7 9 15 12 13 11 10 11 10 10 9 8 7 7 7 7 8 10 10
5 4 4 4 6 6 4 2 2 2 4 5 5 3 1 2 3 5 6 6 5 5 6 5 6 5 6 5 4 4 4 3 4 5 5 5 6 8 8 9 7 4 4 5 7 11 12 13 12 11 11 11 10 10 9 10 10 8 8 7 9 8 9
4 3 2 4 6 7 7 8 8 3 2 4 6 7 6 5 5 4 2 5 5 7 4 4 2 3 4 5 5 4 5 5 5 5 6 6 7 7 8 7 4 5 5 6 5 5 12 9 8 11 11 9 8 10 11 10 9 9 13 12 8 7 9
4 5 4 8 6 8 6 5 7 7 7 9 7 7 3 2 3 8 7 5 6 7 3 4 5 6 6 7 6 4 3 5 5 3 2 4 6 7 8 8 9 7 4 5 10 14 11 7 9 9 8 10 10 12 11 10 9 10 10 11 12 10 8
5 5 5 5 7 6 6 9 11 4 6 5 6 6 5 3 6 8 10 8 6 6 6 7 6 7 7 6 6 6 6 5 5 4 5 6 6 4 1 9 5 7 8 10 13 10 7 6 7 8 9 9 10 11 10 9 10 15 18 16 12 11 8
5 6 4 8 9 7 10 13 7 7 6 3 2 3 5 6 6 5 5 7 6 6 6 6 5 5 4 3 5 2 0 3 3 4 5 6 4 2 3 4 2 1 6 4 3 5 5 5 7 7 7 8 8 10 11 9 13 13 17 15 15 15 12
5 3 4 5 7 9 14 10 5 5 5 6 5 3 2 2 3 5 5 5 6 7 6 6 5 5 5 5 4 5 4 4 4 5 4 3 1 5 6 7 5 6 2 3 4 4 5 8 8 6 5 5 4 5 7 7 11 12 13 14 17 18 15
7 5 3 5 5 9 17 11 8 5 3 3 5 2 3 3 2 1 5 1 4 5 5 4 5 4 4 5 5 5 4 4 3 1 3 3 3 3 6 7 4 3 2 4 5 6 5 6 7 5 5 5 5 5 7 7 7 7 8 13 17 18 15
5 5 3 3 3 10 17 9 8 6 6 5 6 5 5 4 3 3 5 7 5 4 5 5 3 2 1 2 4 4 5 6 5 4 2 3 5 4 4 6 6 6 6 3 1 5 4 5 4 6 7 7 7 6 7 7 6 4 5 7 9 10 6
8 6 5 5 5 11 17 11 7 6 5 4 4 6 6 5 5 5 4 4 5 6 6 6 4 5 2 2 2 1 4 3 4 4 3 2 2 4 5 6 5 4 4 5 6 5 2 2 2 2 5 6 6 8 7 8 9 10 11 11 11 5 5
6 6 7 6 10 15 15 10 8 7 7 7 5 5 6 6 6 5 5 5 4 4 4 5 7 6 9 10 4 5 4 5 5 5 6 6 6 5 5 6 5 5 4 4 3 4 5 4 2 1 1 3 2 2 1 3 4 8 9 9 11 13 9
12 6 7 8 11 10 14 11 8 8 7 7 7 7 6 6 6 5 4 4 4 4 4 3 2 5 6 8 12 6 5 6 6 4 6 7 6 6 5 6 7 6 5 4 4 4 3 2 2 3 3 4 4 6 5 5 5 12 9 10 8 7 10
1 6 9 6 8 9 14 11 9 8 7 6 7 7 7 6 5 5 4 4 4 4 3 3 3 2 4 8 9 9 7 7 6 5 6 6 5 4 4 4 4 5 5 5 4 4 3 2 2 3 3 2 3 3 5 5 5 7 12 11 12 14 9
9 7 7 8 13 15 14 12 9 8 8 7 7 8 7 7 5 4 3 3 3 3 2 2 4 3 2 5 6 9 3 6 3 3 2 1 2 3 4 4 3 4 4 4 4 4 4 4 4 4 4 4 4 4 4 4 5 6 10 12 12 13 11
10 9 13 16 13 11 9 9 11 10 8 6 6 4 4 4 4 4 3 2 2 0 3 2 2 4 5 7 9 9 9 7 4 2 2 3 3 3 3 3 2 2 3 4 4 5 5 4 4 4 5 5 5 6 6 6 9 6 8 11 12 10 10
12 14 13 13 11 9 9 10 10 9 8 6 5 4 3 3 4 4 2 2 1 2 1 2 2 2 2 3 5 8 7 7 5 4 4 3 4 4 4 4 5 5 4 5 5 5 5 5 5 5 5 4 5 5 6 6 6 10 8 11 12 13 12
11 12 12 10 9 9 11 9 9 7 7 5 4 3 2 2 2 2 2 1 4 3 2 1 2 1 2 3 7 8 6 6 6 6 4 4 4 4 4 4 4 4 4 5 5 5 5 5 4 4 4 5 5 6 6 6 6 8 11 10 13 14 14
12 10 10 8 10 10 10 10 10 8 7 5 5 4 3 2 0 2 1 2 4 3 0 1 0 1 2 4 5 5 6 4 3 2 2 2 1 1 1 2 4 4 4 4 4 4 4 4 5 5 5 6 6 6 6 6 6 7 8 12 13 14 15
10 9 9 9 10 10 10 11 9 9 8 6 6 3 2 3 2 0 2 3 2 1 1 0 0 2 2 4 5 5 5 4 4 4 3 3 2 1 1 1 2 2 2 3 4 4 4 5 4 5 5 5 6 6 6 6 6 6 7 7 9 11 15
8 8 8 10 10 10 10 10 9 9 8 7 4 4 3 2 2 2 2 1 2 2 3 1 1 1 1 3 4 4 3 3 3 4 3 3 3 2 1 2 3 3 3 3 3 3 3 4 4 4 5 5 4 4 4 5 5 6 6 7 6 6 6
7 6 7 9 10 10 10 9 9 9 8 7 5 4 2 3 1 1 1 2 3 3 1 1 0 2 2 3 3 5 4 4 4 5 4 4 3 3 3 3 3 3 3 4 3 3 3 4 4 3 4 4 4 5 5 5 5 5 5 6 6 6 6
6 6 8 10 10 9 8 8 8 9 8 7 5 4 3 2 1 0 1 1 3 3 2 2 2 1 3 2 3 3 3 4 5 4 4 4 4 3 3 3 3 2 2 4 4 3 2 3 2 2 3 4 4 5 6 6 5 1 2 5 3 4 6
7 8 9 10 9 9 9 7 8 8 7 6 5 4 4 3 2 1 1 1 2 1 3 2 2 3 3 3 3 4 4 4 3 2 2 3 4 4 4 4 3 2 1 1 2 6 5 3 1 1 3 4 4 3 5 6 7 12 18 17 17 12 7
10 10 10 11 10 10 9 8 8 7 7 6 5 5 4 3 3 2 3 3 2 2 2 2 3 3 3 4 3 2 3 2 4 4 2 2 2 3 3 4 5 4 6 5 6 5 6 4 4 3 1 1 3 3 5 8 11 13 13 14 14 16 17
11 11 10 10 10 9 9 8 7 8 7 6 6 5 4 3 3 3 2 2 2 2 2 2 2 3 3 2 2 1 1 2 2 2 4 4 3 4 4 3 3 4 1 5 11 6 2 1 3 3 4 4 5 4 4 6 9 11 11 11 12 14 16
Wind_Direction
65 271 250 254 233 220 230 134 171 151 159 172 173 170 175 178 167 167 169 172 194 192 194 172 173 174 174 172 167 178 178 165 151 146 157 156 145 146 171 178 169 176 193 197 194 201 191 204 205 183 180 190 209 213 178 197 174 177 195 125 154 143 182
227 247 293 259 218 156 209 138 148 129 128 137 158 161 160 162 157 170 166 175 181 184 177 170 172 171 171 171 171 179 175 156 157 153 155 156 159 169 184 192 195 171 186 257 225 203 191 206 215 191 177 190 202 213 169 167 182 210 194 157 185 184 178
192 55 288 266 197 242 145 186 130 118 126 138 139 161 153 150 154 157 153 169 178 174 174 169 173 174 178 181 175 186 172 162 165 168 174 174 174 177 184 192 197 188 204 210 223 234 197 201 217 192 184 190 198 193 173 184 194 208 200 166 201 204 195
174 211 227 273 258 154 155 205 138 133 125 132 136 136 145 144 145 160 164 172 167 178 171 177 175 176 182 179 180 184 178 165 176 182 187 186 180 176 183 190 191 195 184 211 213 215 206 202 203 200 188 190 199 188 185 195 197 203 210 180 200 215 208
241 171 234 264 333 237 167 200 168 145 141 132 137 140 140 144 165 154 154 168 174 176 177 174 179 184 182 184 184 186 182 174 183 195 196 194 190 171 187 192 191 194 191 204 219 215 210 202 204 199 191 185 200 181 189 196 201 195 207 195 194 214 207
32 353 333 286 227 247 236 195 173 150 143 140 140 145 154 152 162 166 163 171 183 185 185 182 190 186 192 186 174 179 183 188 191 198 196 194 194 186 193 192 193 189 189 200 209 218 206 205 203 198 193 199 197 196 193 197 205 197 200 199 199 214 214
105 256 314 271 259 145 302 216 167 142 138 143 144 145 150 156 164 173 178 181 186 184 189 188 195 193 198 193 186 191 197 197 200 200 200 198 198 197 193 190 188 197 195 189 195 210 199 204 206 200 200 199 196 201 193 195 198 202 189 194 195 220 232
150 224 229 264 274 92 281 241 159 139 144 144 147 149 156 155 158 171 182 188 190 183 192 193 196 191 196 200 191 199 208 204 200 204 198 209 201 196 192 182 182 194 201 192 194 214 211 204 201 208 204 194 196 203 202 188 206 206 198 194 195 209 226
173 183 234 256 128 87 245 250 172 143 148 158 156 160 163 165 164 170 182 184 189 194 198 203 201 199 191 198 200 202 207 208 208 204 212 204 209 200 198 174 171 188 217 200 184 211 240 207 205 205 202 199 196 201 206 186 197 211 205 200 192 206 222
155 168 209 333 297 118 34 346 25 135 159 153 159 160 167 173 169 164 178 187 184 190 197 203 213 206 196 197 208 211 210 212 211 207 218 224 211 200 200 181 156 184 221 155 189 217 238 216 207 201 193 198 202 200 212 186 191 201 211 208 203 201 217
174 235 282 253 324 41 30 325 250 146 186 159 165 166 163 175 169 175 178 184 186 197 197 196 198 235 203 167 233 216 211 210 203 188 214 232 227 199 193 184 174 180 211 185 194 213 216 212 206 199 191 200 199 205 203 182 199 203 206 207 208 213 216
199 217 221 202 45 83 91 244 334 322 227 176 185 168 160 171 170 174 177 180 192 193 196 100 158 88 92 216 200 225 230 221 199 201 211 214 209 196 193 186 188 194 203 184 160 211 239 206 205 200 196 201 201 201 199 188 206 203 206 213 213 203 223
211 213 171 57 99 115 142 189 130 322 307 296 196 177 169 171 164 172 164 160 154 184 129 115 109 150 165 167 181 204 223 231 212 203 202 203 198 189 202 211 207 212 224 188 153 183 255 218 207 204 196 201 206 204 201 196 200 193 203 212 215 211 218
223 225 163 142 117 126 157 204 142 208 217 269 286 197 156 156 175 158 141 147 144 146 149 159 171 189 175 175 194 203 190 199 219 218 193 195 186 192 201 214 218 207 195 142 145 181 228 218 203 208 200 202 204 206 208 200 196 179 200 213 219 213 215
198 218 191 164 152 152 153 187 156 133 10 346 307 9 280 198 167 134 131 153 162 167 186 174 178 169 151 173 199 196 178 177 199 222 221 195 191 200 198 209 204 204 217 216 209 205 237 210 198 202 207 202 199 202 207 204 210 194 201 217 222 233 229
203 225 191 177 166 152 163 178 142 109 34 242 230 201 186 190 166 93 83 196 172 208 180 152 135 129 154 180 206 199 196 189 208 212 226 205 203 221 217 192 128 193 231 251 264 266 219 200 196 204 209 200 194 206 210 210 210 203 200 208 218 226 233
216 214 216 176 191 146 156 135 91 110 161 185 200 210 185 156 103 131 185 211 183 205 165 161 144 178 175 184 197 181 175 180 199 178 217 225 208 221 219 140 161 190 187 245 227 215 228 190 201 201 211 207 203 210 213 215 215 200 224 225 212 213 228
205 218 182 150 140 138 125 105 105 180 191 181 187 170 156 186 159 172 168 191 194 196 163 168 171 177 186 183 190 184 183 199 181 184 203 233 236 225 350 113 199 188 172 191 232 225 184 197 194 203 205 204 205 213 216 220 214 196 206 211 213 219 217
225 180 165 137 144 145 102 79 116 188 197 180 218 200 177 173 181 163 176 174 186 179 174 174 170 171 167 140 132 100 315 247 182 202 208 221 179 93 36 69 50 128 211 237 214 203 176 184 212 210 212 212 206 218 213 215 226 199 188 194 211 217 221
268 142 144 142 150 132 109 120 201 235 190 167 203 222 182 191 214 166 171 165 177 179 180 183 181 171 160 170 160 152 166 175 202 197 213 170 86 116 114 112 169 227 207 237 238 253 180 196 201 199 208 224 215 234 234 222 228 198 198 206 208 214 214
198 143 138 115 120 111 107 145 191 192 188 163 192 195 197 197 207 172 125 160 190 162 165 185 183 190 174 165 142 153 111 65 65 12 193 142 156 149 141 134 162 221 220 238 235 244 219 204 199 185 197 217 221 227 239 241 270 290 223 210 214 215 214
127 104 108 130 125 110 122 152 184 183 168 153 158 177 195 189 188 180 173 170 177 172 162 170 194 161 194 162 142 136 146 159 177 189 229 195 182 165 137 144 166 181 167 182 67 283 258 220 209 199 201 198 203 212 227 226 226 249 260 237 228 240 246
147 153 174 161 144 107 125 158 181 172 139 168 170 166 161 156 173 178 175 187 178 177 185 168 170 151 189 332 299 172 148 175 189 177 174 130 213 184 151 146 168 194 197 195 177 204 208 267 253 224 206 204 199 209 209 215 214 203 178 185 204 179 242
136 170 170 175 114 102 125 148 167 140 152 174 172 169 162 160 171 182 173 182 172 183 195 178 185 168 156 168 182 266 205 182 207 193 184 193 204 208 171 154 167 187 202 230 218 207 203 188 209 180 115 138 181 202 227 248 137 192 228 206 192 193 202
166 178 170 156 130 133 128 141 151 147 167 168 171 179 173 168 178 179 183 169 181 191 203 197 206 179 155 124 141 191 234 212 207 205 192 196 204 198 186 173 179 176 169 183 208 240 252 203 196 207 199 204 206 190 202 228 163 151 182 202 201 212 232
177 178 117 117 137 129 123 128 134 147 162 172 169 171 173 174 180 189 192 181 178 194 204 220 196 172 120 121 137 148 201 216 198 194 208 203 193 186 176 165 178 171 177 184 191 203 220 228 222 226 239 241 237 234 227 218 223 195 180 183 198 195 206
227 150 150 145 113 121 133 146 154 152 162 172 169 167 167 168 181 171 184 176 185 197 187 165 121 66 91 117 127 122 190 275 267 210 187 215 237 178 175 167 169 152 160 184 196 207 212 219 233 234 242 249 249 254 241 237 246 241 212 213 203 204 202
157 116 107 110 123 137 149 143 135 150 153 162 158 163 156 170 166 156 165 176 207 86 97 93 79 129 151 135 141 148 158 221 243 200 186 218 205 184 165 141 180 215 197 199 187 204 218 222 223 230 231 229 230 229 233 234 234 243 222 225 227 224 209
118 121 127 129 138 142 130 129 140 144 149 155 152 156 154 160 158 151 144 191 135 98 89 75 75 91 105 128 117 123 144 171 185 170 179 185 201 215 203 187 190 201 204 201 202 208 222 221 230 233 234 239 240 251 253 238 232 216 226 217 222 226 214
124 131 135 153 150 149 138 138 138 141 147 148 143 139 145 176 150 141 143 109 74 75 63 47 99 91 124 115 112 127 140 153 171 184 173 171 177 186 216 206 212 205 206 217 217 216 226 232 230 232 234 241 239 234 236 239 239 228 221 226 218 223 222
133 146 151 161 149 138 144 143 144 146 142 146 141 129 139 94 13 88 144 97 80 80 106 152 219 108 125 105 104 119 127 139 125 97 141 148 153 205 222 207 203 224 216 220 219 223 226 229 225 220 232 232 234 236 234 231 238 246 232 223 227 224 224
139 154 155 145 136 143 141 140 146 149 144 144 138 126 131 114 84 96 68 45 108 171 146 25 254 182 135 125 129 134 148 140 128 132 140 160 162 192 182 259 245 254 265 219 224 217 231 243 235 237 233 237 236 235 236 237 236 241 243 237 231 234 232
156 159 163 149 140 138 140 147 152 153 150 145 151 143 140 132 159 106 77 229 253 215 137 122 221 247 199 157 145 139 144 148 156 155 157 179 181 186 251 280 286 288 278 269 261 259 256 254 251 245 253 249 268 253 242 233 231 235 239 240 252 255 256
153 163 149 137 142 144 147 154 160 155 161 153 158 159 154 136 143 61 76 331 291 313 41 138 151 250 201 207 174 165 185 169 173 172 168 172 182 190 219 239 252 240 242 258 260 257 253 270 285 303 299 313 318 325 323 323 314 332 16 31 18 360 353
152 167 143 147 152 154 154 167 161 163 167 161 149 149 152 167 153 46 328 288 311 331 309 317 308 286 270 239 212 179 162 160 169 192 184 164 181 212 211 196 203 233 308 28 22 33 1 340 345 348 345 333 340 335 324 317 310 344 44 322 325 311 317
158 168 160 158 157 160 157 163 160 158 156 142 141 153 158 172 159 173 243 274 257 253 279 268 256 268 260 264 221 212 189 171 204 206 197 172 195 200 193 193 200 124 268 119 91 102 116 115 277 4 336 316 303 308 295 296 306 328 325 323 323 314 265
161 167 168 166 163 156 159 159 162 149 153 147 145 152 160 171 166 194 190 222 238 257 279 283 287 277 261 238 244 46 345 218 187 152 172 229 226 225 226 210 200 108 88 119 154 149 158 162 151 125 90 211 269 305 316 305 303 300 300 304 303 306 308
163 172 167 172 161 160 160 156 160 157 154 139 150 154 154 173 168 208 173 176 216 231 249 260 269 281 289 348 34 64 106 6 335 177 169 190 213 230 222 251 181 180 129 150 158 158 130 296 226 208 201 244 250 267 282 271 269 273 281 285 290 291 294